Temperature
21 21 21 21 20 19 19 18 18 17 17 17 17 17 16 16 16 16 16 16 16 16 16 16 17 17 17 17 17 17 17 17 17 17 17 17 17 17 17 17 17 17 17
21 21 21 21 20 19 18 18 17 17 16 16 17 17 17 16 16 16 16 16 16 16 16 16 16 17 17 17 17 17 17 17 17 17 17 17 17 17 17 17 17 17 17
21 20 20 20 19 19 18 17 17 17 17 17 17 17 17 16 16 16 16 16 16 16 16 16 16 16 17 17 17 17 17 17 17 17 17 17 17 17 17 17 17 17 17
19 19 19 19 18 18 18 17 17 17 17 16 17 16 16 16 16 16 16 16 16 16 16 16 16 16 16 17 16 16 16 16 16 17 17 17 17 17 17 17 17 17 17
18 18 17 17 17 17 17 16 16 16 16 15 16 16 16 16 16 16 16 16 16 16 16 16 16 16 16 16 16 16 16 16 16 17 17 16 17 17 17 17 17 17 17
17 17 16 16 17 17 16 16 16 15 15 15 15 15 15 15 15 16 16 16 16 16 15 16 16 16 16 16 16 16 16 16 16 16 16 16 16 16 17 17 17 17 17
16 15 15 16 16 16 16 16 16 15 15 15 14 14 14 15 14 15 15 15 15 15 15 15 15 15 15 15 16 16 16 15 16 16 16 16 16 16 16 16 17 17 17
15 15 15 15 15 15 15 14 14 14 14 14 14 14 14 14 14 14 15 15 15 15 15 15 15 15 15 15 15 16 16 15 15 16 16 16 16 16 16 16 16 16 17
15 15 15 15 14 14 14 14 14 14 14 14 14 14 14 14 14 14 14 14 14 14 14 14 15 15 15 15 15 15 15 15 15 15 15 15 15 16 16 16 16 16 16
13 13 13 14 14 14 14 14 14 14 13 13 13 13 13 14 14 14 14 14 14 14 14 14 14 14 15 15 15 15 15 15 15 15 15 15 15 16 16 16 16 16 16
13 13 13 13 13 13 13 13 13 13 13 13 13 13 13 13 13 14 14 14 14 14 14 14 14 14 14 14 14 14 15 15 15 15 15 15 15 15 15 16 16 16 16
11 11 12 12 12 12 12 12 12 13 12 12 13 13 13 13 13 13 13 13 13 14 14 14 14 14 14 14 14 14 14 14 14 15 15 15 15 15 15 15 15 16 16
9 10 10 11 11 12 12 12 12 12 12 12 12 12 12 12 13 13 13 13 13 13 13 13 13 13 13 13 13 13 13 14 14 15 15 15 15 15 15 15 15 15 16
9 10 10 10 11 11 11 11 11 12 12 12 12 12 12 12 12 12 12 12 12 13 13 13 13 13 13 13 13 13 13 13 14 14 15 15 15 15 15 15 15 15 15
8 9 9 10 10 10 10 10 11 11 11 11 11 11 12 12 12 12 12 12 12 12 12 12 12 12 12 13 13 13 13 12 13 13 14 15 15 15 15 15 15 15 15
7 7 8 8 8 9 10 10 10 10 11 11 11 11 11 11 11 12 12 12 12 12 12 12 12 12 12 12 12 12 12 12 12 13 13 14 14 14 14 14 14 15 15
6 6 7 7 8 8 8 8 9 9 9 10 10 11 10 10 11 11 12 12 12 12 12 12 12 12 12 12 12 12 12 12 12 12 13 13 14 14 14 14 14 14 14
5 6 6 6 6 7 7 7 7 7 7 8 8 9 10 9 9 10 10 11 11 12 12 12 12 12 12 12 12 12 12 12 12 12 12 13 13 13 13 14 14 14 14
5 5 5 5 5 5 6 6 5 5 5 5 6 7 7 7 7 7 8 9 10 10 11 11 11 11 11 12 12 12 12 12 12 12 12 12 13 13 13 13 14 14 14
4 4 4 4 4 4 4 4 4 4 4 3 3 4 5 5 5 6 6 7 8 9 9 10 10 11 11 11 11 11 11 11 11 12 12 12 12 13 13 13 13 13 13
3 3 3 2 2 2 2 1 2 2 2 2 2 2 3 3 4 4 5 5 6 7 8 8 9 10 10 10 10 10 11 11 11 11 11 12 12 12 12 13 13 13 13
2 2 1 1 -0 -1 -1 -1 -1 -1 -0 0 1 1 2 2 2 3 3 4 5 6 7 8 8 9 9 9 9 10 10 10 11 11 11 12 12 12 12 12 12 13 13
0 -0 -1 -1 -2 -3 -3 -2 -2 -1 -1 -1 -0 0 1 1 1 2 2 3 3 4 5 6 7 8 8 9 9 9 9 10 10 11 11 11 11 11 12 12 12 12 13
-2 -3 -3 -3 -3 -4 -4 -3 -4 -5 -5 -5 -4 -3 -1 -0 1 1 2 2 2 3 4 5 6 6 7 8 8 8 9 9 10 10 10 10 11 11 11 11 11 12 12
-4 -4 -4 -4 -4 -4 -5 -4 -5 -6 -6 -5 -5 -5 -4 -3 -2 -1 0 1 1 2 3 4 5 6 6 6 7 7 8 9 9 10 10 10 10 10 10 11 11 11 12
-5 -5 -5 -5 -6 -6 -5 -5 -6 -6 -6 -6 -6 -6 -6 -6 -5 -3 -2 -1 -1 0 1 3 4 5 5 6 6 7 7 8 9 9 9 9 9 9 9 10 10 11 11
Wind_Speed
5 7 11 11 10 8 6 3 2 2 2 4 3 2 1 1 0 1 2 2 2 1 1 2 3 3 3 3 3 3 3 3 4 5 6 7 9 9 9 9 9 8 8
4 8 10 9 8 7 5 3 2 1 2 3 2 1 3 4 4 4 3 3 3 4 4 4 4 5 4 3 3 3 3 3 4 4 5 6 8 9 9 10 9 8 8
3 4 5 6 5 4 4 3 3 3 2 2 2 3 4 5 5 5 5 6 7 7 7 7 7 6 5 5 5 5 5 4 4 3 4 5 6 9 9 9 9 9 8
6 4 1 3 3 4 4 4 4 4 4 3 3 5 5 6 6 7 7 7 8 10 10 9 8 7 6 6 6 6 6 6 5 3 3 3 4 8 9 9 9 8 7
8 6 4 3 3 4 5 5 6 6 5 5 5 7 7 7 8 9 9 10 10 9 10 10 9 8 7 6 6 6 7 7 6 4 3 3 3 7 9 9 9 8 8
9 8 5 4 4 4 5 6 7 7 7 8 7 8 8 9 9 9 10 11 10 8 7 6 7 8 8 7 6 6 7 8 7 5 4 5 6 8 10 10 10 10 9
14 18 15 12 8 5 5 6 7 7 7 9 9 8 9 12 11 10 10 11 10 7 5 5 5 6 6 5 5 6 7 7 7 6 6 6 8 13 13 13 12 11 10
21 26 27 27 22 14 9 7 7 7 8 9 9 8 10 11 10 11 11 11 9 6 4 4 6 6 6 6 5 6 7 7 6 7 6 6 8 13 15 15 14 12 11
28 28 28 29 28 24 18 13 10 9 9 9 8 9 12 12 10 10 11 10 7 5 5 6 7 8 7 7 6 6 7 7 5 6 7 7 9 11 15 16 15 14 12
24 26 28 29 30 28 23 22 19 15 13 11 10 11 12 11 9 9 9 9 8 7 7 8 9 9 8 7 6 6 7 7 5 7 7 8 11 12 15 17 17 16 14
26 23 27 28 30 28 26 28 27 24 23 19 14 13 13 11 10 10 10 10 10 10 10 10 10 11 10 8 7 6 6 6 6 6 8 11 14 14 14 18 19 18 16
24 22 22 26 29 28 26 25 25 24 25 24 21 18 15 13 12 12 12 14 14 15 14 14 13 12 11 8 8 8 6 7 7 8 10 13 16 16 15 18 20 19 18
13 20 19 23 27 27 23 23 22 22 23 24 25 25 20 15 12 10 8 10 12 13 11 11 12 11 10 8 8 8 8 8 8 9 11 14 16 18 18 18 20 20 19
17 20 19 23 25 26 24 21 21 21 20 20 22 25 21 12 10 9 6 7 7 7 7 6 5 7 8 9 8 7 8 8 9 10 12 15 17 18 19 19 19 21 20
21 21 21 20 23 24 21 19 20 20 20 21 21 24 24 13 9 10 8 8 7 6 5 4 4 4 5 6 6 6 6 8 9 11 12 16 18 18 19 21 20 21 21
21 21 20 17 24 24 19 15 15 18 20 20 20 23 25 20 15 11 10 8 7 8 6 5 5 5 5 5 6 6 6 8 9 11 13 15 18 19 20 22 23 22 22
17 17 19 16 24 23 19 18 17 17 18 17 18 22 24 23 20 15 10 12 10 12 9 6 6 4 5 5 7 8 7 6 7 9 12 13 14 17 20 23 24 23 23
16 19 19 21 21 20 19 18 17 18 17 16 18 20 23 24 23 17 10 11 15 14 7 6 6 5 6 6 6 7 7 7 8 8 10 11 12 13 15 22 24 24 23
16 17 19 18 18 19 19 19 18 17 16 17 18 19 22 22 23 19 11 10 17 10 9 9 7 6 6 7 7 8 7 7 8 7 7 8 11 13 13 16 20 22 23
15 16 19 20 19 19 16 13 11 11 13 17 17 20 23 22 22 19 12 14 14 11 10 10 10 8 7 7 8 8 7 7 6 6 7 6 7 11 13 12 12 14 20
18 18 19 20 20 17 16 15 15 15 13 11 15 21 23 24 24 19 12 12 12 12 12 13 11 11 7 5 5 5 5 6 6 6 6 6 7 8 10 10 10 10 11
17 15 16 18 18 16 16 14 13 14 12 12 17 21 22 24 23 19 14 14 14 13 14 13 12 8 6 5 6 5 5 4 4 5 5 6 7 5 6 7 9 9 11
19 19 18 18 18 17 19 14 16 13 12 14 16 15 20 24 22 20 17 13 14 12 13 14 13 11 10 8 7 6 5 7 4 3 2 3 4 5 6 5 6 10 12
18 18 18 19 19 18 19 19 20 16 16 17 15 14 18 21 20 19 18 15 13 13 13 14 13 12 12 11 7 7 5 4 5 3 2 1 2 3 4 4 6 8 11
16 17 18 19 18 18 18 20 19 17 16 16 16 18 17 15 17 19 18 14 14 13 14 15 16 15 11 11 9 5 5 4 3 4 3 2 1 1 1 3 5 5 7
12 15 18 18 17 17 19 19 19 20 21 21 21 19 17 16 15 19 21 15 15 15 15 15 15 17 15 13 10 7 6 5 5 4 4 3 3 2 1 1 3 4 4
Wind_Direction
232 212 198 187 189 187 192 186 140 60 146 138 111 68 25 9 11 151 161 160 155 153 203 217 188 185 185 172 159 156 146 121 114 108 122 135 138 135 137 143 132 122 118
193 188 195 189 194 198 205 213 238 349 56 116 93 341 312 307 291 273 263 266 275 270 254 243 227 215 207 199 188 182 186 167 138 113 115 132 141 138 130 141 141 138 132
86 161 197 196 207 218 230 241 262 285 331 34 7 313 302 301 310 314 299 274 269 269 264 253 244 239 229 210 201 199 201 190 173 139 122 127 144 145 136 137 143 142 142
54 49 12 229 240 249 257 260 264 267 279 289 297 291 297 303 304 309 320 311 283 269 263 257 250 248 240 217 207 206 209 200 186 171 161 169 179 166 157 151 148 146 145
46 36 12 288 271 274 275 274 270 264 263 266 264 270 277 286 295 301 305 305 303 282 266 260 255 254 252 235 222 213 213 208 195 188 202 212 213 190 175 168 159 153 154
30 23 2 313 290 283 279 273 270 267 264 269 271 272 276 277 273 282 294 296 294 291 286 282 269 262 263 253 237 227 225 218 197 196 217 233 235 219 190 173 164 162 161
23 17 13 3 344 322 301 287 276 270 266 271 274 271 280 282 274 268 278 286 272 270 289 303 299 286 282 274 264 255 246 235 196 202 222 241 235 217 192 177 173 171 168
28 23 18 10 3 352 333 312 298 281 270 270 282 280 280 280 283 281 275 283 267 252 268 293 299 297 294 293 291 282 275 260 220 209 226 245 245 218 195 185 180 179 176
28 24 18 13 8 360 348 341 331 320 305 291 289 288 292 286 293 301 286 282 278 281 284 285 285 289 292 294 301 300 292 288 248 228 235 243 254 239 209 194 187 186 184
28 24 18 15 12 8 4 1 355 343 331 314 299 297 302 291 286 295 294 274 269 272 274 278 276 271 268 274 287 303 308 306 277 247 246 248 253 254 225 205 195 192 190
24 21 18 16 15 13 14 12 10 7 359 349 331 326 327 319 305 293 284 270 262 258 256 260 265 265 261 259 262 270 287 290 290 272 262 260 260 262 235 215 202 197 195
19 19 20 18 15 15 15 13 12 11 7 5 0 352 341 329 313 297 291 289 280 270 262 257 253 251 253 252 254 255 253 262 272 270 270 272 271 269 253 228 210 203 200
14 19 19 19 17 17 14 13 13 10 9 8 8 4 354 342 332 320 307 306 304 293 279 270 264 251 240 234 240 244 243 246 252 260 265 268 272 271 264 243 220 208 204
16 14 11 15 15 14 14 13 12 10 8 6 6 9 6 356 345 335 317 303 300 298 292 281 275 270 258 244 238 240 244 241 244 250 257 260 262 264 262 250 230 214 208
14 8 4 6 9 5 7 8 11 8 6 3 6 8 8 4 353 344 330 315 296 287 281 282 275 270 264 255 245 236 238 244 248 249 253 254 254 254 256 253 240 224 216
15 10 4 5 6 1 359 358 3 3 2 4 7 6 6 3 357 349 338 328 313 299 278 262 257 264 267 262 259 247 241 245 247 248 248 251 251 250 250 250 245 231 223
9 7 5 3 3 360 355 351 354 356 359 1 2 2 3 1 357 351 342 336 330 320 298 277 263 251 254 253 255 254 248 243 243 245 244 242 246 248 246 245 244 235 225
7 5 3 1 358 355 353 349 348 350 352 354 356 358 358 356 354 348 341 336 332 327 310 290 274 267 257 248 249 250 244 242 240 240 241 238 237 242 244 242 240 236 230
7 5 2 360 358 354 350 350 346 343 345 347 351 353 351 350 349 344 333 331 331 327 319 307 289 262 260 258 255 252 239 235 238 236 232 232 231 233 236 240 237 233 229
4 4 2 360 358 355 353 350 346 344 346 345 345 345 343 343 343 340 332 331 331 327 323 318 303 281 256 253 260 257 244 235 234 232 236 235 229 227 225 227 233 233 229
0 3 2 359 356 357 358 355 350 346 343 340 340 339 338 340 340 337 335 331 330 325 317 312 307 292 272 248 250 262 262 244 239 238 233 232 232 226 216 213 219 226 232
353 353 357 356 353 357 357 348 342 335 334 337 338 338 340 340 337 336 335 331 327 324 320 317 316 302 281 237 222 237 265 284 255 240 234 227 229 222 219 211 208 217 223
353 350 350 351 350 355 356 350 346 343 343 345 341 337 337 335 333 333 331 329 324 322 318 317 312 305 294 271 223 207 208 227 243 269 244 232 225 211 218 220 219 223 222
349 347 348 349 349 355 357 352 349 346 343 339 335 329 327 327 327 328 328 324 320 319 315 314 314 307 296 281 253 226 225 195 182 216 249 247 239 202 210 218 227 229 225
346 353 351 347 350 354 355 351 347 343 340 335 334 331 331 328 326 327 324 320 318 316 312 311 312 307 296 280 263 229 219 234 208 163 198 228 222 199 208 210 211 220 221
350 354 349 345 346 353 354 349 347 344 340 337 337 334 333 330 330 331 329 324 319 315 309 308 303 300 294 280 266 237 206 190 191 172 170 189 205 235 273 244 191 189 189
Height
1528 1527 1526 1526 1525 1526 1527 1527 1528 1528 1529 1529 1530 1531 1531 1531 1532 1533 1533 1533 1534 1534 1534 1534 1534 1534 1535 1535 1536 1536 1537 1537 1537 1538 1538 1538 1538 1539 1539 1540 1541 1541 1541
1531 1530 1529 1528 1528 1528 1528 1529 1529 1529 1529 1529 1530 1530 1531 1531 1532 1532 1532 1533 1533 1533 1533 1533 1533 1534 1534 1534 1534 1535 1536 1536 1537 1537 1538 1538 1538 1539 1539 1540 1541 1541 1542
1534 1533 1532 1531 1530 1530 1530 1530 1529 1529 1529 1529 1530 1530 1530 1531 1531 1531 1531 1531 1532 1532 1532 1532 1532 1533 1532 1533 1533 1534 1535 1535 1536 1537 1537 1537 1538 1538 1539 1540 1541 1541 1542
1536 1535 1534 1533 1532 1531 1531 1530 1529 1529 1529 1529 1529 1530 1530 1530 1530 1530 1530 1530 1530 1530 1530 1530 1531 1531 1531 1532 1532 1533 1534 1535 1535 1536 1536 1537 1537 1538 1538 1539 1540 1541 1541
1539 1538 1537 1535 1534 1532 1531 1530 1529 1528 1528 1528 1528 1528 1528 1528 1528 1528 1528 1528 1529 1529 1529 1529 1529 1529 1530 1531 1531 1531 1532 1533 1534 1534 1535 1536 1537 1537 1538 1539 1539 1540 1541
1540 1540 1538 1536 1534 1533 1531 1530 1529 1528 1528 1527 1527 1528 1528 1527 1526 1526 1526 1526 1527 1527 1527 1527 1527 1527 1528 1529 1530 1530 1531 1532 1532 1533 1534 1535 1535 1536 1537 1538 1538 1539 1540
1540 1539 1538 1537 1535 1533 1531 1530 1529 1527 1527 1526 1526 1527 1526 1525 1525 1525 1524 1525 1525 1525 1525 1525 1525 1525 1526 1527 1527 1528 1529 1530 1530 1531 1532 1533 1534 1535 1536 1537 1538 1539 1540
1539 1538 1536 1535 1534 1533 1532 1530 1529 1527 1526 1525 1525 1525 1524 1524 1524 1523 1523 1523 1524 1523 1523 1523 1523 1523 1524 1524 1525 1525 1526 1527 1528 1529 1530 1531 1532 1533 1534 1535 1537 1538 1539
1541 1539 1537 1535 1533 1532 1532 1531 1530 1528 1527 1526 1524 1523 1522 1522 1522 1521 1521 1521 1521 1521 1521 1521 1520 1520 1521 1522 1522 1523 1523 1524 1524 1526 1527 1528 1529 1531 1532 1534 1535 1536 1537
1543 1541 1539 1537 1534 1533 1531 1530 1529 1528 1527 1525 1524 1522 1521 1520 1520 1519 1519 1519 1519 1518 1518 1518 1518 1518 1518 1518 1518 1519 1520 1520 1521 1523 1524 1525 1526 1528 1529 1531 1532 1534 1535
1544 1542 1541 1538 1536 1534 1531 1529 1527 1526 1524 1523 1522 1521 1520 1519 1518 1517 1517 1517 1516 1515 1515 1515 1515 1515 1515 1515 1515 1516 1516 1517 1518 1519 1521 1522 1523 1525 1526 1528 1530 1531 1533
1547 1545 1543 1540 1538 1535 1533 1530 1528 1525 1523 1521 1519 1518 1517 1516 1516 1515 1514 1514 1514 1513 1512 1512 1512 1512 1512 1512 1512 1512 1512 1513 1514 1515 1517 1518 1520 1521 1523 1525 1527 1528 1530
1552 1548 1545 1542 1539 1536 1533 1530 1528 1525 1523 1520 1517 1515 1514 1513 1513 1512 1511 1511 1510 1510 1509 1509 1508 1508 1508 1508 1508 1508 1508 1509 1509 1510 1512 1514 1515 1517 1519 1521 1523 1524 1526
1555 1552 1549 1545 1542 1538 1535 1531 1528 1525 1522 1519 1517 1514 1512 1510 1509 1508 1507 1507 1507 1507 1506 1506 1505 1505 1505 1504 1504 1504 1504 1504 1505 1505 1507 1509 1511 1512 1514 1516 1518 1520 1523
1557 1554 1551 1548 1544 1541 1537 1533 1529 1526 1522 1519 1516 1513 1510 1508 1506 1505 1504 1503 1502 1502 1501 1501 1501 1501 1500 1500 1500 1500 1500 1500 1500 1500 1501 1503 1506 1507 1509 1511 1513 1516 1519
1560 1556 1553 1549 1545 1541 1537 1533 1530 1526 1522 1519 1515 1512 1509 1506 1503 1501 1500 1499 1498 1497 1496 1496 1495 1495 1495 1495 1495 1495 1495 1495 1495 1495 1496 1497 1499 1502 1504 1506 1508 1511 1514
1563 1559 1554 1549 1545 1541 1536 1532 1528 1525 1521 1517 1513 1510 1507 1503 1500 1497 1495 1494 1493 1492 1490 1490 1490 1490 1489 1489 1489 1489 1489 1489 1490 1491 1491 1492 1493 1496 1498 1500 1503 1506 1508
1564 1559 1555 1550 1544 1539 1535 1530 1526 1522 1518 1514 1510 1507 1503 1500 1496 1493 1491 1489 1487 1485 1485 1484 1484 1484 1483 1483 1482 1483 1483 1483 1484 1485 1486 1487 1488 1490 1492 1495 1498 1500 1503
1564 1559 1553 1548 1542 1537 1532 1527 1522 1518 1513 1510 1506 1502 1498 1495 1491 1488 1485 1483 1480 1478 1478 1477 1476 1476 1476 1476 1476 1476 1476 1477 1477 1479 1480 1481 1482 1484 1486 1489 1492 1494 1497
1563 1557 1552 1546 1540 1534 1528 1523 1518 1513 1508 1505 1501 1498 1494 1489 1486 1482 1479 1477 1474 1471 1470 1469 1468 1468 1468 1470 1470 1469 1469 1470 1471 1471 1473 1474 1476 1478 1480 1483 1485 1488 1491
1560 1554 1548 1542 1537 1531 1525 1519 1513 1508 1503 1499 1496 1492 1488 1484 1480 1476 1472 1469 1468 1465 1463 1463 1461 1460 1460 1463 1463 1463 1462 1463 1463 1465 1466 1467 1469 1471 1473 1475 1478 1481 1484
1560 1553 1547 1541 1535 1529 1523 1518 1512 1507 1502 1497 1492 1488 1483 1478 1474 1470 1466 1463 1461 1458 1456 1455 1455 1453 1453 1456 1457 1457 1456 1455 1454 1457 1458 1460 1462 1464 1466 1468 1471 1474 1477
1559 1553 1547 1540 1534 1527 1520 1513 1507 1500 1495 1490 1486 1482 1477 1473 1469 1465 1461 1458 1455 1451 1449 1448 1447 1445 1445 1447 1449 1451 1450 1447 1448 1449 1450 1451 1453 1456 1458 1461 1463 1466 1469
1558 1551 1545 1538 1531 1525 1517 1510 1504 1498 1492 1487 1482 1477 1472 1468 1464 1460 1455 1451 1447 1444 1441 1440 1439 1437 1437 1438 1439 1441 1443 1443 1443 1443 1443 1444 1446 1448 1451 1454 1456 1459 1462
1556 1549 1542 1535 1528 1522 1515 1509 1502 1497 1492 1485 1479 1473 1467 1462 1458 1453 1448 1443 1439 1436 1433 1431 1430 1429 1429 1430 1431 1432 1434 1436 1436 1437 1438 1440 1441 1442 1444 1447 1450 1452 1455
1554 1547 1539 1532 1526 1520 1513 1507 1501 1495 1489 1482 1475 1469 1463 1458 1453 1447 1441 1436 1432 1428 1425 1423 1421 1421 1421 1421 1422 1424 1425 1427 1428 1430 1432 1434 1436 1437 1439 1441 1443 1446 1449